Weather History for Perry, IA

Change the Weather History Date:

Thursday, September 13, 2012

  Actual Average Record
Temperature  
Mean Temperature 58 °F -  
Max Temperature 66 °F 77 °F 92 °F (1984)
Min Temperature 50 °F 53 °F 34 °F (2014)
Degree Days  
Heating Degree Days 7    
Growing Degree Days 8 (Base 50)    
Moisture  
Dew Point 49 °F    
Average Humidity 76    
Maximum Humidity 89    
Minimum Humidity 45    
Precipitation  
Precipitation 0.51 in - - ()
Sea Level Pressure  
Sea Level Pressure 30.35 in    
Wind  
Wind Speed 6 mph (NE)    
Max Wind Speed 16 mph    
Max Gust Speed 26 mph    
Visibility 9 miles    
Events Rain    
Averages and records for this station are not official NWS values.
T = Trace of Precipitation, MM = Missing Value Source: NWS Daily Summary

Daily Weather History Graph

Daily Weather History Graph

Search for Another Location

Airport:

Trip Planner

Search our weather history database for the weather conditions in past years. The results will help you decide how hot, cold, wet, or windy it might be!

Date:

Astronomy

Sep. 13, 2012 Rise Set
Actual Time 6:55 AM CDT 7:28 PM CDT
Civil Twilight 6:27 AM CDT 7:56 PM CDT
Nautical Twilight 5:54 AM CDT 8:29 PM CDT
Astronomical Twilight 5:20 AM CDT 9:03 PM CDT
Moon 4:13 AM CDT (9/13) 5:53 PM CDT (9/13)
Length of Visible Light 13h 29m
Length of Day
12h 33m
Waning Crescent, 7% of the Moon is Illuminated
Sep 13
Waning Crescent
Sep 15
New
Sep 22
First Quarter
Sep 29
Full
Oct 8
Last Quarter

Hourly Weather History & Observations

Time (CDT) Temp. Dew Point Humidity Pressure Visibility Wind Dir Wind Speed Gust Speed Precip Events Conditions
12:15 AM 54.5 °F 50.4 °F 86% 30.29 in 3.0 mi North 16.1 mph 26.5 mph 0.05 in Rain Rain
12:35 AM 54.1 °F 50.0 °F 86% 30.30 in 3.0 mi North 13.8 mph 25.3 mph 0.10 in Rain Rain
12:55 AM 54.0 °F 50.0 °F 86% 30.29 in 4.0 mi NNE 12.7 mph 19.6 mph 0.13 in Rain Rain
1:15 AM 53.2 °F 48.6 °F 84% 30.31 in 5.0 mi North 12.7 mph 17.3 mph 0.05 in Rain Rain
1:35 AM 52.7 °F 48.4 °F 85% 30.30 in 5.0 mi North 8.1 mph - 0.10 in Rain Rain
1:55 AM 52.7 °F 48.6 °F 86% 30.32 in 5.0 mi North 9.2 mph - 0.15 in Rain Rain
2:15 AM 52.3 °F 48.4 °F 86% 30.32 in 4.0 mi NE 5.8 mph - 0.06 in Rain Heavy Rain
2:35 AM 52.3 °F 48.0 °F 85% 30.31 in 10.0 mi ENE 9.2 mph - 0.08 in Rain Rain
2:55 AM 52.2 °F 47.8 °F 85% 30.31 in 7.0 mi ENE 6.9 mph - 0.12 in Rain Light Rain
3:35 AM 52.0 °F 48.0 °F 86% 30.31 in 10.0 mi NNE 3.5 mph - 0.01 in Rain Light Rain
3:55 AM 52.0 °F 48.2 °F 87% 30.29 in 7.0 mi NNE 6.9 mph - 0.04 in Rain Light Rain
4:15 AM 51.8 °F 48.2 °F 88% 30.29 in 10.0 mi NE 5.8 mph - 0.01 in Rain Light Rain
4:35 AM 52.2 °F 48.2 °F 86% 30.29 in 10.0 mi ENE 5.8 mph - 0.02 in Rain Light Rain
4:55 AM 52.3 °F 48.4 °F 86% 30.31 in 10.0 mi East 3.5 mph - 0.03 in Rain Rain
5:15 AM 52.5 °F 48.2 °F 85% 30.31 in 10.0 mi NE 4.6 mph - 0.01 in Rain Light Rain
5:35 AM 52.3 °F 48.2 °F 86% 30.32 in 10.0 mi East 3.5 mph - 0.01 in Rain Light Rain
5:55 AM 52.3 °F 48.4 °F 86% 30.33 in 10.0 mi Calm Calm - 0.02 in Rain Light Rain
6:15 AM 52.3 °F 48.4 °F 86% 30.32 in 10.0 mi East 4.6 mph - 0.01 in Rain Light Rain
6:35 AM 52.5 °F 48.6 °F 86% 30.33 in 10.0 mi North 3.5 mph - 0.01 in Rain Light Rain
6:55 AM 52.3 °F 48.6 °F 87% 30.33 in 10.0 mi NNE 3.5 mph - 0.02 in Rain Light Rain
7:15 AM 52.3 °F 48.6 °F 87% 30.34 in 10.0 mi Calm Calm - N/A   Overcast
7:35 AM 52.7 °F 49.1 °F 88% 30.34 in 10.0 mi Calm Calm - N/A   Mostly Cloudy
7:55 AM 52.7 °F 49.1 °F 88% 30.35 in 10.0 mi Calm Calm - N/A   Scattered Clouds
8:15 AM 52.9 °F 49.1 °F 87% 30.36 in 10.0 mi Calm Calm - N/A   Scattered Clouds
8:35 AM 53.2 °F 48.7 °F 85% 30.37 in 10.0 mi North 3.5 mph - N/A   Clear
8:55 AM 53.6 °F 49.1 °F 85% 30.38 in 10.0 mi NNW 3.5 mph - N/A   Clear
9:15 AM 54.5 °F 50.0 °F 85% 30.38 in 10.0 mi NNW 4.6 mph - N/A   Clear
9:35 AM 55.0 °F 49.3 °F 81% 30.38 in 10.0 mi Calm Calm - N/A   Clear
9:55 AM 55.2 °F 49.3 °F 80% 30.38 in 10.0 mi North 3.5 mph - N/A   Clear
10:15 AM 55.9 °F 49.3 °F 78% 30.39 in 10.0 mi North 3.5 mph - N/A   Clear
10:35 AM 56.8 °F 49.6 °F 77% 30.40 in 10.0 mi NW 5.8 mph - N/A   Scattered Clouds
10:55 AM 57.7 °F 49.6 °F 74% 30.40 in 10.0 mi Calm Calm - N/A   Clear
11:15 AM 57.7 °F 49.8 °F 75% 30.40 in 10.0 mi NNW 3.5 mph - N/A   Scattered Clouds
11:35 AM 58.3 °F 50.2 °F 74% 30.40 in 10.0 mi Calm Calm - N/A   Clear
11:55 AM 58.5 °F 49.8 °F 73% 30.41 in 10.0 mi North 3.5 mph - N/A   Clear
12:15 PM 59.0 °F 49.1 °F 70% 30.41 in 10.0 mi Calm Calm - N/A   Clear
12:55 PM 59.7 °F 49.5 °F 69% 30.40 in 10.0 mi NNW 3.5 mph - N/A   Clear
1:15 PM 60.3 °F 49.5 °F 68% 30.39 in 10.0 mi Calm Calm - N/A   Clear
1:35 PM 61.0 °F 49.5 °F 66% 30.39 in 10.0 mi North 4.6 mph - N/A   Clear
1:55 PM 61.3 °F 49.5 °F 65% 30.39 in 10.0 mi Calm Calm - N/A   Clear
2:15 PM 62.2 °F 49.5 °F 63% 30.38 in 10.0 mi Calm Calm - N/A   Clear
2:35 PM 63.5 °F 49.3 °F 60% 30.37 in 10.0 mi Calm Calm - N/A   Clear
2:55 PM 64.0 °F 49.3 °F 59% 30.37 in 10.0 mi Calm Calm - N/A   Clear
3:15 PM 64.4 °F 48.6 °F 56% 30.36 in 10.0 mi Calm Calm - N/A   Clear
3:35 PM 64.4 °F 48.0 °F 55% 30.36 in 10.0 mi Calm Calm - N/A   Clear
3:55 PM 65.7 °F 48.0 °F 53% 30.36 in 10.0 mi Calm Calm - N/A   Clear
4:15 PM 66.6 °F 48.2 °F 52% 30.35 in 10.0 mi Calm Calm - N/A   Clear
4:35 PM 66.0 °F 47.7 °F 52% 30.35 in 10.0 mi Calm Calm - N/A   Clear
4:55 PM 66.6 °F 47.5 °F 50% 30.34 in 10.0 mi Calm Calm - N/A   Clear
5:15 PM 66.6 °F 46.4 °F 48% 30.34 in 10.0 mi Calm Calm - N/A   Clear
5:18 PM 66.2 °F 46.4 °F 49% 30.34 in 10.0 mi Calm Calm - N/A   Clear
5:35 PM 66.4 °F 46.2 °F 48% 30.34 in 10.0 mi Calm Calm - N/A   Clear
5:55 PM 66.6 °F 44.6 °F 45% 30.35 in 10.0 mi Calm Calm - N/A   Clear
6:15 PM 66.4 °F 45.0 °F 46% 30.35 in 10.0 mi Calm Calm - N/A   Clear
6:35 PM 65.3 °F 48.0 °F 54% 30.35 in 10.0 mi Calm Calm - N/A   Clear
6:55 PM 63.7 °F 49.8 °F 61% 30.35 in 10.0 mi Calm Calm - N/A   Clear
7:15 PM 60.6 °F 52.3 °F 74% 30.35 in 10.0 mi South 4.6 mph - N/A   Clear
7:35 PM 58.1 °F 51.3 °F 78% 30.35 in 10.0 mi SSW 4.6 mph - N/A   Clear
7:55 PM 56.3 °F 50.9 °F 82% 30.35 in 10.0 mi SSW 5.8 mph - N/A   Clear
8:15 PM 55.4 °F 50.4 °F 83% 30.35 in 10.0 mi SSW 5.8 mph - N/A   Clear
8:35 PM 55.2 °F 50.0 °F 83% 30.35 in 10.0 mi South 4.6 mph - N/A   Clear
8:55 PM 53.6 °F 49.1 °F 85% 30.36 in 10.0 mi South 4.6 mph - N/A   Clear
9:15 PM 53.1 °F 48.7 °F 85% 30.36 in 10.0 mi South 4.6 mph - N/A   Clear
9:35 PM 53.6 °F 49.3 °F 85% 30.36 in 10.0 mi South 5.8 mph - N/A   Clear
9:55 PM 52.9 °F 48.9 °F 86% 30.37 in 10.0 mi South 4.6 mph - N/A   Clear
10:15 PM 52.2 °F 48.2 °F 86% 30.37 in 10.0 mi SSE 3.5 mph - N/A   Clear
10:35 PM 51.1 °F 47.5 °F 87% 30.37 in 10.0 mi South 4.6 mph - N/A   Clear
10:55 PM 50.9 °F 47.3 °F 87% 30.37 in 10.0 mi South 5.8 mph - N/A   Clear
11:15 PM 50.9 °F 47.5 °F 88% 30.37 in 10.0 mi South 4.6 mph - N/A   Clear
11:35 PM 50.9 °F 47.7 °F 89% 30.37 in 10.0 mi South 4.6 mph - N/A   Clear
11:55 PM 50.9 °F 47.7 °F 89% 30.37 in 10.0 mi South 4.6 mph - N/A   Clear